Location: Mentone
(34.5413°N, 85.5351°W)
Time: 19:25:45
(UTC-05:00)

Vanguard 2 Rocket - Visible Passes

Search period start: 21 May 2018 00:00
Search period end: 31 May 2018 00:00
Orbit: 554 x 3327 km, 32.9° (Epoch: 21 May)

Date Brightness Start Highest point End Pass type
(mag) Time Alt. Az. Time Alt. Az. Time Alt. Az.
21 May 9.1 02:21:58 30° SSE 02:21:58 30° SSE 02:28:48 10° SE visible
21 May 9.3 04:27:55 15° WSW 04:32:36 20° SSW 04:42:14 10° S visible
21 May 6.2 20:47:44 10° SW 20:51:28 44° SSE 20:54:42 16° E visible
21 May 8.4 22:59:43 10° W 23:00:32 16° W 23:00:32 16° W visible
22 May 10.1 01:27:17 10° SE 01:27:17 10° SE 01:27:27 10° SE visible
22 May 9.2 03:33:14 24° SSW 03:33:14 24° SSW 03:42:13 10° SSE visible
22 May 6.1 22:00:56 10° W 22:04:38 70° SSW 22:04:38 70° SSW visible
23 May 9.7 02:38:32 17° SSE 02:38:32 17° SSE 02:41:40 10° SSE visible
23 May 9.7 04:44:49 10° SW 04:47:15 11° SSW 04:49:55 10° SSW visible
23 May 5.9 21:02:01 10° WSW 21:05:52 62° S 21:08:39 21° E visible
23 May 8.8 23:14:14 10° W 23:14:29 12° W 23:14:29 12° W visible
24 May 9.8 03:49:44 13° S 03:49:44 13° S 03:52:46 10° S visible
24 May 6.5 22:15:25 10° W 22:18:26 51° WSW 22:18:26 51° WSW visible
25 May 5.8 21:16:26 10° W 21:20:19 72° S 21:22:21 30° E visible
26 May 5.9 20:17:12 10° WSW 20:21:18 64° S 20:25:18 10° E visible
26 May 7.3 22:29:55 10° W 22:32:03 31° WSW 22:32:03 31° WSW visible
27 May 5.8 21:30:55 10° W 21:34:48 69° S 21:35:55 45° ESE visible
28 May 5.8 20:31:38 10° W 20:35:46 72° S 20:39:47 10° E visible
28 May 8.1 22:44:30 10° W 22:45:35 18° W 22:45:35 18° W visible
29 May 6.0 21:45:26 10° W 21:49:15 54° SSW 21:49:26 54° S visible
30 May 5.9 20:46:06 10° W 20:50:14 66° S 20:53:16 16° ESE visible
